Regional Weather Roundup
Issued by NWS

Home | Current Version | Previous Version | Graphics & Text | Print | Product List | Glossary On
Versions: 1 2 3 4 5 6 7 8 9 10 11 12 13 14 15 16 17 18 19 20 21 22 23 24 25 26 27 28
000
ASUS45 KCYS 281210
RWRWY

WYOMING REGIONAL WEATHER ROUNDUP
NATIONAL WEATHER SERVICE CHEYENNE WY
600 AM MDT SUN AUG 28 2016

NOTE:  "FAIR" INDICATES FEW OR NO CLOUDS BELOW 12,000 FEET
WITH NO SIGNIFICANT WEATHER AND/OR OBSTRUCTIONS TO VISIBILITY.

WYZ001-281300-
YELLOWSTONE NATIONAL PARK

CITY           SKY/WX    TMP DP  RH WIND       PRES   REMARKS
LK YELLOWSTONE   N/A     33  28  81 W3        30.29S
6HR MIN TEMP:  33; 6HR MAX TEMP:  40;

W YELLOWSTONE  NOT AVBL

$$
WYZ002>013-054>058-071-098>099-281300-
NORTHERN WYOMING

CITY           SKY/WX    TMP DP  RH WIND       PRES   REMARKS
JACKSON        FAIR      36  27  69 NE5       30.24R WCI  32
CODY           FAIR      64  27  24 W3        30.06R
GREYBULL       FAIR      52  32  46 SE6       30.01R
6HR MIN TEMP:  50; 6HR MAX TEMP:  64;

WORLAND        FAIR      48  30  49 S5        30.01R
6HR MIN TEMP:  45; 6HR MAX TEMP:  62;

SHERIDAN       FAIR      48  38  68 CALM      29.96R
6HR MIN TEMP:  47; 6HR MAX TEMP:  57;

BUFFALO        FAIR      62  27  26 NW9       30.03R
6HR MIN TEMP:  57; 6HR MAX TEMP:  70;

GILLETTE       FAIR      45  35  68 CALM      29.99R
6HR MIN TEMP:  45; 6HR MAX TEMP:  62;

HULETT         FAIR      55  41  58 SW6       30.00S
NEWCASTLE      FAIR      52  43  71 NE6       30.03R

$$
WYZ014>020-022>026-101>103-281300-
CENTRAL WYOMING

CITY           SKY/WX    TMP DP  RH WIND       PRES   REMARKS
BIG PINEY      FAIR      34  27  75 CALM      30.27S
6HR MIN TEMP:  34; 6HR MAX TEMP:  49;

PINEDALE       FAIR      32  28  86 NW6       30.29R WCI  26
DUBOIS         FAIR      45  23  42 NW16      30.24R
LANDER         FAIR      54  30  40 SE5       30.11R
6HR MIN TEMP:  53; 6HR MAX TEMP:  64;

RIVERTON       FAIR      52  29  41 W9        30.11R
6HR MIN TEMP:  52; 6HR MAX TEMP:  65;

CASPER         FAIR      60  33  36 SW6       30.11R
6HR MIN TEMP:  52; 6HR MAX TEMP:  60;

DOUGLAS        FAIR      46  36  68 CALM      30.10R
6HR MIN TEMP:  43; 6HR MAX TEMP:  55;


$$
WYZ021-027>030-104>119-281300-
SOUTHERN WYOMING

CITY           SKY/WX    TMP DP  RH WIND       PRES   REMARKS
EVANSTON       FAIR      49  23  36 S9        30.28R
6HR MIN TEMP:  49; 6HR MAX TEMP:  55;

FORT BRIDGER   FAIR      57  22  25 W9        30.29S
ROCK SPRINGS   FAIR      56  25  30 SE3       30.25R
6HR MIN TEMP:  52; 6HR MAX TEMP:  58;

DIXON          FAIR      47  34  60 SE7       30.30S
RAWLINS        FAIR      50  34  54 SW8       30.25R
6HR MIN TEMP:  48; 6HR MAX TEMP:  60;

SARATOGA       FAIR      48  30  49 S12       30.29R
LARAMIE        FAIR      46  30  53 SE9       30.28S
6HR MIN TEMP:  38; 6HR MAX TEMP:  48;

CHEYENNE       FAIR      52  32  46 W9        30.20S
6HR MIN TEMP:  51; 6HR MAX TEMP:  60;

TORRINGTON     FAIR      51  48  89 SE5       30.06S
6HR MIN TEMP:  50; 6HR MAX TEMP:  71;

PINE BLUFFS    FAIR      46  43  87 S6        30.15S

$$




USA.gov is the U.S. government's official web portal to all federal, state and local government web resources and services.